Amateur Radio Satellites - All Passes

Search period start: 19 June 2013 01:25
Search period end: 20 June 2013 01:25
Location: Slanting_Bridge, 35.6330°N, 80.9830°W

Satellite Date Start Highest point End Downlink Frequencies (MHz)
Time Altitude Azimuth
KITSAT 1 19 Jun 01:43:26 01:49:10 20° 42° (NE) 01:54:53 435.175 FM
Oscar 16 19 Jun 02:18:06 02:22:14 24° 95° (E) 02:26:20 437.025 USB, Beacon 2401.1428
PCSat 19 Jun 02:29:26 02:34:13 31° 304° (NW) 02:39:02 145.825 MHz
Uribyol 2 19 Jun 02:30:40 02:34:46 23° 95° (E) 02:38:50 436.500 FM
SO-50 19 Jun 02:47:21 02:51:37 32° 306° (NW) 02:55:50 436.795 FM
PANSAT 19 Jun 02:48:13 02:49:54 12° 200° (SSW) 02:51:34 not established
Sapphire 19 Jun 03:05:32 03:09:08 18° 310° (NW) 03:12:46 437.095 MHz 1200 baud AX-25 AFSK
Oscar 19 19 Jun 03:11:32 03:16:39 74° 102° (ESE) 03:21:45 437.125 CW, 437.150 USB
ITAMSAT 1 19 Jun 03:35:29 03:40:44 82° 285° (WNW) 03:45:56 435.822 SSB
AO-27 19 Jun 03:36:30 03:41:45 78° 285° (WNW) 03:46:57 436.795 MHz FM
KITSAT 1 19 Jun 03:37:32 03:45:43 87° 63° (ENE) 03:53:51 435.175 FM
Oscar 16 19 Jun 03:57:01 04:01:36 34° 290° (WNW) 04:06:09 437.025 USB, Beacon 2401.1428
Uribyol 2 19 Jun 04:09:34 04:14:18 36° 290° (WNW) 04:19:01 436.500 FM
AO-Echo 19 Jun 04:17:13 04:22:24 85° 284° (WNW) 04:27:41 ?
UOSAT-12 19 Jun 04:29:40 04:34:07 66° 117° (ESE) 04:38:37 437.025 FM, 437.400 FM
TMSAT-1 19 Jun 04:30:04 04:34:32 27° 96° (E) 04:38:59 436.925 FM
Uosat F 19 Jun 04:36:39 04:41:35 52° 100° (E) 04:46:29 435.120 FM
AO-7 19 Jun 04:38:25 04:41:31 12° 90° (E) 04:44:35 29.400 - 29.500 MHz
Oscar 19 19 Jun 04:53:29 04:55:20 12° 298° (WNW) 04:57:11 437.125 CW, 437.150 USB
Gurwin Techsat 1B 19 Jun 05:09:38 05:14:58 80° 285° (WNW) 05:20:16 435.225 FM
KITSAT 1 19 Jun 05:35:30 05:40:02 16° 259° (W) 05:44:33 435.175 FM
STRAND 1 19 Jun 06:01:27 06:05:11 21° 66° (ENE) 06:08:56 ?
TMSAT-1 19 Jun 06:09:46 06:14:26 32° 291° (WNW) 06:19:04 436.925 FM
UOSAT-12 19 Jun 06:12:21 06:14:44 14° 314° (NW) 06:17:08 437.025 FM, 437.400 FM
Uosat F 19 Jun 06:16:50 06:19:56 17° 295° (WNW) 06:23:02 435.120 FM
AO-7 19 Jun 06:26:56 06:35:21 80° 106° (ESE) 06:43:42 29.400 - 29.500 MHz
MaSat-1 19 Jun 06:50:41 06:52:39 21° 251° (WSW) 06:54:42 437.345 MHz
Saudisat 1A 19 Jun 07:01:37 07:04:56 20° 49° (NE) 07:08:11 436.775 MHz
JAS-1B 19 Jun 07:35:25 07:39:12 17° 95° (E) 07:43:15 435.800 - 435.900 CW/SSB
STRAND 1 19 Jun 07:39:16 07:44:04 41° 261° (W) 07:48:55 ?
Hamsat 19 Jun 07:53:33 07:57:36 36° 98° (E) 08:01:36 145.90 MHz
AO-7 19 Jun 08:21:21 08:27:12 22° 304° (NW) 08:33:03 29.400 - 29.500 MHz
Saudisat 1A 19 Jun 08:40:33 08:44:48 41° 246° (WSW) 08:48:56 436.775 MHz
SO-67 19 Jun 08:52:37 08:56:10 56° 100° (E) 08:59:40 435.3500 MHz FM
JAS-1B 19 Jun 09:24:14 09:30:03 61° 287° (WNW) 09:36:44 435.800 - 435.900 CW/SSB
Hamsat 19 Jun 09:30:31 09:33:21 17° 292° (WNW) 09:36:10 145.90 MHz
PCSat 19 Jun 09:37:47 09:41:01 16° 48° (NE) 09:44:14 145.825 MHz
SO-50 19 Jun 09:43:13 09:45:05 12° 44° (NE) 09:46:56 436.795 FM
HO-68 19 Jun 10:01:57 10:08:11 31° 97° (E) 10:14:21 435.675 MHz FM
Sapphire 19 Jun 10:11:23 10:16:00 28° 54° (NE) 10:20:36 437.095 MHz 1200 baud AX-25 AFSK
JAS-2 19 Jun 10:14:33 10:19:01 27° 96° (E) 10:23:22 435.800 - 435.900 CW/SSB, 435.910 FM
Oscar 11 19 Jun 11:09:37 11:14:00 72° 102° (ESE) 11:18:21 145.825 FM, Beacon 2401.500 USB
PCSat 19 Jun 11:19:35 11:25:00 73° 246° (WSW) 11:30:23 145.825 MHz
SO-50 19 Jun 11:21:44 11:26:15 77° 242° (WSW) 11:30:42 436.795 FM
RS-15 19 Jun 11:42:18 11:53:57 57° 111° (ESE) 12:05:08 29.354 - 29.394 USB, Beacon 29.352 USB
OPAL 19 Jun 11:47:44 11:52:25 41° 101° (E) 11:57:08 ?
HO-68 19 Jun 11:49:12 11:55:56 45° 293° (WNW) 12:02:39 435.675 MHz FM
Sapphire 19 Jun 11:54:31 11:59:28 37° 251° (WSW) 12:04:23 437.095 MHz 1200 baud AX-25 AFSK
JAS-2 19 Jun 11:59:35 12:04:06 29° 292° (WNW) 12:08:28 435.800 - 435.900 CW/SSB, 435.910 FM
UOSAT-12 19 Jun 13:02:32 13:06:26 26° 52° (NE) 13:10:19 437.025 FM, 437.400 FM
ITAMSAT 1 19 Jun 13:14:54 13:16:58 12° 62° (ENE) 13:19:02 435.822 SSB
AO-27 19 Jun 13:15:45 13:18:04 13° 63° (ENE) 13:20:23 436.795 MHz FM
OPAL 19 Jun 13:27:27 13:31:01 20° 296° (WNW) 13:34:35 ?
Oscar 16 19 Jun 13:32:24 13:36:42 27° 68° (ENE) 13:41:00 437.025 USB, Beacon 2401.1428
Uribyol 2 19 Jun 13:45:51 13:50:10 27° 68° (ENE) 13:54:29 436.500 FM
RS-15 19 Jun 13:55:36 14:06:42 42° 312° (NW) 14:17:25 29.354 - 29.394 USB, Beacon 29.352 USB
Oscar 19 19 Jun 14:25:27 14:30:37 78° 76° (ENE) 14:35:48 437.125 CW, 437.150 USB
UOSAT-12 19 Jun 14:42:32 14:46:34 30° 247° (WSW) 14:50:36 437.025 FM, 437.400 FM
ITAMSAT 1 19 Jun 14:50:36 14:55:48 74° 258° (WSW) 15:01:02 435.822 SSB
Gurwin Techsat 1B 19 Jun 14:51:15 14:53:47 14° 63° (ENE) 14:56:19 435.225 FM
AO-27 19 Jun 14:51:46 14:56:57 70° 258° (WSW) 15:02:10 436.795 MHz FM
Oscar 16 19 Jun 15:11:22 15:15:55 31° 263° (W) 15:20:29 437.025 USB, Beacon 2401.1428
Uribyol 2 19 Jun 15:24:51 15:29:29 32° 263° (W) 15:34:09 436.500 FM
AO-Echo 19 Jun 15:27:41 15:32:22 90° 256° (WSW) 15:37:11 ?
AO-7 19 Jun 15:34:25 15:39:04 16° 53° (NE) 15:43:43 29.400 - 29.500 MHz
ISS 19 Jun 15:42:31 15:45:40 46° 134° (SE) 15:48:51 145.800 FM
Uosat F 19 Jun 15:47:09 15:51:59 52° 73° (ENE) 15:56:52 435.120 FM
TMSAT-1 19 Jun 15:48:04 15:52:43 32° 69° (ENE) 15:57:22 436.925 FM
KITSAT 1 19 Jun 16:11:20 16:15:39 16° 101° (E) 16:19:57 435.175 FM
RS-15 19 Jun 16:17:34 16:23:29 15° 343° (NNW) 16:29:18 29.354 - 29.394 USB, Beacon 29.352 USB
Gurwin Techsat 1B 19 Jun 16:27:51 16:33:07 69° 258° (WSW) 16:38:26 435.225 FM
ISS 19 Jun 17:20:09 17:22:31 18° 330° (NNW) 17:24:54 145.800 FM
AO-7 19 Jun 17:22:15 17:30:34 81° 71° (ENE) 17:38:57 29.400 - 29.500 MHz
TMSAT-1 19 Jun 17:28:09 17:32:36 27° 264° (W) 17:37:05 436.925 FM
Uosat F 19 Jun 17:28:15 17:31:04 15° 267° (W) 17:33:53 435.120 FM
KITSAT 1 19 Jun 18:01:51 18:09:55 89° 297° (WNW) 18:18:04 435.175 FM
JAS-1B 19 Jun 18:21:26 18:23:20 11° 61° (ENE) 18:25:09 435.800 - 435.900 CW/SSB
RS-15 19 Jun 18:36:26 18:42:53 16° 22° (NNE) 18:49:11 29.354 - 29.394 USB, Beacon 29.352 USB
Hamsat 19 Jun 18:45:32 18:48:38 20° 69° (ENE) 18:51:46 145.90 MHz
AO-7 19 Jun 19:18:51 19:24:05 18° 267° (W) 19:29:23 29.400 - 29.500 MHz
SO-67 19 Jun 19:27:09 19:29:01 14° 69° (ENE) 19:30:54 435.3500 MHz FM
MaSat-1 19 Jun 19:35:30 19:41:05 42° 111° (ESE) 19:45:31 437.345 MHz
STRAND 1 19 Jun 19:52:36 19:57:48 86° 103° (ESE) 20:02:57 ?
KITSAT 1 19 Jun 20:00:43 20:06:26 21° 318° (NW) 20:12:12 435.175 FM
JAS-1B 19 Jun 20:06:06 20:13:22 87° 75° (ENE) 20:19:31 435.800 - 435.900 CW/SSB
Hamsat 19 Jun 20:20:36 20:24:27 31° 263° (W) 20:28:22 145.90 MHz
JAS-2 19 Jun 20:26:00 20:28:44 13° 61° (ENE) 20:31:23 435.800 - 435.900 CW/SSB, 435.910 FM
HO-68 19 Jun 20:29:23 20:33:51 18° 58° (ENE) 20:38:20 435.675 MHz FM
RS-15 19 Jun 20:48:13 20:58:55 50° 52° (NE) 21:09:21 29.354 - 29.394 USB, Beacon 29.352 USB
SO-67 19 Jun 20:59:04 21:02:11 28° 263° (W) 21:05:19 435.3500 MHz FM
MaSat-1 19 Jun 21:18:48 21:22:52 21° 298° (WNW) 21:26:18 437.345 MHz
PANSAT 19 Jun 21:25:21 21:27:51 16° 164° (SSE) 21:30:21 not established
STRAND 1 19 Jun 21:35:26 21:36:13 10° 299° (WNW) 21:37:01 ?
Oscar 11 19 Jun 22:02:08 22:06:10 39° 73° (ENE) 22:10:14 145.825 FM, Beacon 2401.500 USB
JAS-1B 19 Jun 22:02:20 22:04:20 11° 267° (W) 22:06:16 435.800 - 435.900 CW/SSB
JAS-2 19 Jun 22:05:25 22:12:56 78° 75° (ENE) 22:19:41 435.800 - 435.900 CW/SSB, 435.910 FM
HO-68 19 Jun 22:13:34 22:20:42 80° 255° (WSW) 22:27:53 435.675 MHz FM
ISS 19 Jun 22:13:57 22:16:24 19° 30° (NNE) 22:18:51 145.800 FM
Saudisat 1A 19 Jun 22:44:27 22:48:59 79° 300° (WNW) 22:53:37 436.775 MHz
OPAL 19 Jun 22:59:54 23:04:49 54° 71° (ENE) 23:09:41 ?
RS-15 19 Jun 23:01:00 23:10:57 43° 252° (WSW) 23:20:52 29.354 - 29.394 USB, Beacon 29.352 USB
PANSAT 19 Jun 23:04:22 23:07:42 27° 176° (S) 23:11:01 not established
Oscar 11 19 Jun 23:39:57 23:42:32 15° 267° (W) 23:45:07 145.825 FM, Beacon 2401.500 USB
ISS 19 Jun 23:50:05 23:53:13 43° 226° (SW) 23:56:22 145.800 FM
JAS-2 19 Jun 23:53:47 23:58:16 17° 267° (W) 00:02:32 435.800 - 435.900 CW/SSB, 435.910 FM
HO-68 20 Jun 00:08:02 00:09:17 11° 271° (W) 00:10:33 435.675 MHz FM
PCSat 20 Jun 00:16:35 00:20:40 22° 106° (ESE) 00:24:47 145.825 MHz
OPAL 20 Jun 00:41:15 00:43:58 15° 265° (W) 00:46:41 ?
PANSAT 20 Jun 00:44:27 00:47:37 24° 189° (S) 00:50:47 not established
Sapphire 20 Jun 00:49:59 00:55:04 44° 111° (ESE) 01:00:11 437.095 MHz 1200 baud AX-25 AFSK

Developed and maintained by Chris Peat, Heavens-Above GmbH. Please read the updated FAQ before sending e-mail. Imprint. DLR
